Regional Weather Roundup
Issued by NWS Wakefield, VA

Home | Current Version | Previous Version | Text Only | Print | Product List | Glossary Off
Versions: 1 2 3 4 5 6 7 8 9 10 11 12 13 14 15 16 17 18 19 20 21 22 23 24 25 26 27

000
ASUS41 KAKQ 051615
RWRAKQ

REGIONAL WEATHER ROUNDUP
NATIONAL WEATHER SERVICE WAKEFIELD VA
1200 PM EDT THU MAY 05 2016

Note: "fair" indicates few or no clouds below 12,000 feet with no
significant weather and/or obstructions to visibility. * = Denotes
station may not report precipitation (e.g., rain,snow,etc.),
thunder or fog.

VAZ042-051-052>054-056-051700-
NORTHERN VIRGINIA

CITY           SKY/WX    TMP DP  RH WIND       PRES   REMARKS
WASH NATIONAL  DRIZZLE   52  49  89 NE13      29.68S FOG
DULLES         CLOUDY    53  46  77 NE12      29.68S
FORT BELVOIR   CLOUDY    52  50  93 VRB5      29.67S
QUANTICO       CLOUDY    54  49  83 NE12      29.68S
FREDERICKSBRG* CLOUDY    54  54 100 N9        29.66S
STAFFORD*      CLOUDY    51  49  91 N7        29.71S FOG
WARRENTON      CLOUDY    53  47  81 N6        29.67S
CULPEPER*      CLOUDY    53  51  93 N6        29.68S
MANASSAS*      CLOUDY    54  52  94 NE6       29.67F
LEESBURG*      CLOUDY    54  52  94 NE8       29.69S FOG
WINCHESTER     CLOUDY    52  48  87 NE3       29.68F
FRONT ROYAL*   CLOUDY    50  50 100 NE3       29.67F
LURAY*         LGT RAIN  52  52 100 NE10      29.66S
$$

VAZ048-049-060>072-079>083-051700-
CENTRAL AND SOUTH CENTRAL VIRGINIA

CITY           SKY/WX    TMP DP  RH WIND       PRES   REMARKS
RICHMOND       CLOUDY    52  50  93 NE10      29.62F
CHESTERFIELD*  CLOUDY    52  39  62 NE10      29.64R
PETERSBURG*    CLOUDY    55  55  98 N10       29.61F
HANOVER        LGT RAIN  52  50  93 VRB5      29.64F
TAPPAHANNOCK*  CLOUDY    54  51  91 N8        29.64F
QUINTON*       CLOUDY    53  51  92 NE7       29.62S
CHARLOTTSVILLE RAIN      51  48  89 NE8       29.65S FOG
GORDONSVILLE*  CLOUDY    52  51  97 NE8       29.65F
ORANGE*        DRIZZLE   52  52 100 NE5       29.68S
LOUISA*        CLOUDY    55  54  94 NE8G16    29.64S
BUMPASS*       CLOUDY    51  49  95 NE5       29.65F
FARMVILLE*     CLOUDY    55  54  97 NE12      29.60S
CREWE*         CLOUDY    53  53 100 NE12      29.60S
FORT PICKETT*  NOT AVBL
CHASE CITY*    CLOUDY    52  50  94 NW7G20    29.59R VSB 3/4
CLARKSVILLE*   CLOUDY    52  52 100 N8G16     29.58F
SOUTH HILL*    CLOUDY    55  52  90 NE5       29.62F
LAWRENCEVILLE* CLOUDY    53  52  97 NE6       29.58F
EMPORIA*       CLOUDY    54  52  94 N8        29.60S
$$

VAZ088>098-051700-
SOUTHEAST VIRGINIA

CITY           SKY/WX    TMP DP  RH WIND       PRES   REMARKS
NORFOLK        CLOUDY    54  49  83 NE14G23   29.59F
VIRGINIA BEACH CLOUDY    56  48  74 NE20      29.58F
NORFOLK NAVAL  CLOUDY    55  50  83 NE18      29.61F
WEST POINT*    CLOUDY    54  49  83 NE8       29.63F
SALUDA*        CLOUDY    54  50  88 N10       29.62F
NEWPORT NEWS   CLOUDY    54  50  86 NE14      29.61S
LANGLEY AFB    CLOUDY    54  51  91 NE12      29.60S
FORT EUSTIS    CLOUDY    55  51  86 NE8       29.59S
WILLIAMSBURG*  FAIR      57  52  82 CALM      29.62S
HR EXEC AP*    CLOUDY    55  50  82 NE8       29.61F
FRANKLIN*      RAIN      54  51  90 NE8       29.59F
US460-WAKEFLD  CLOUDY    54  51  90 NE6       29.60F
$$

VAZ020-022-025-037-045-051700-
WEST CENTRAL AND SOUTHWEST VIRGINIA

CITY           SKY/WX    TMP DP  RH WIND       PRES   REMARKS
STAUNTON*      LGT RAIN  52  52  99 N10       29.67S
WAYNESBORO*    CLOUDY    49  47  95 NE3       29.65R
HOT SPRINGS VA LGT RAIN  40  40 100 N12G17    29.64R
LYNCHBURG      LGT RAIN  52  51  97 N6        29.63S
DANVILLE       LGT RAIN  53  50  89 NW10      29.61F
SOUTH BOSTON*  CLOUDY    54  53  95 NW7       29.60R
MARTINSVILLE   LGT RAIN  47  43  87 NW10      29.68R
ROANOKE        LGT RAIN  48  43  82 W13       29.67S
BLACKSBURG     RAIN      44  41  91 NW6       29.70S
DUBLIN*        LGT RAIN  45  41  87 NW9       29.70S
MARION*        CLOUDY    46  35  64 NW7G23    29.73R
HILLSVILLE*    CLOUDY    44  38  80 N15       29.66S
RICHLANDS*     CLOUDY    45  26  47 NW8       29.72F
WISE*          CLOUDY    45  34  65 NW7       29.76S
ABINGDON*      CLOUDY    48  35  62 NW10      29.74R
$$

MDZ021>025-VAZ099-100-051700-
SOUTHERN MARYLAND AND THE DELMARVA PENINSULA

CITY           SKY/WX    TMP DP  RH WIND       PRES   REMARKS
PATUXENT RIVER CLOUDY    52  46  80 NE14      29.65F
BAY BRIDGE APT NOT AVBL
LEONARDTOWN    CLOUDY    50  45  81 NE7       29.66F
DOVER          CLOUDY    52  50  93 NE10      29.66F
GEORGETOWN     CLOUDY    51  46  83 NE14      29.65F
EASTON         CLOUDY   N/A N/A N/A NE9       29.70F
CAMBRIDGE      CLOUDY    50  45  81 NE9       29.64F
SALISBURY      CLOUDY    51  47  86 NE10G22   29.64F
OCEAN CITY     CLOUDY    50  46  86 NE17G25   29.64S
WALLOPS ISLAND CLOUDY    52  47  83 NE17      29.62F
ACCOMACK*      CLOUDY   N/A N/A N/A NE8       29.61F
$$

NCZ012>017-030>032-051700-
NORTH CENTRAL AND EASTERN NORTH CAROLINA

CITY           SKY/WX    TMP DP  RH WIND       PRES   REMARKS
ROANOKE RAPIDS LGT RAIN  55  52  88 NE7G16    29.56F
RALEIGH        CLOUDY    56  50  80 N10G17    29.57S THUNDER
ELIZABETH CITY CLOUDY    55  50  83 NE24      29.57S
AHOSKIE*       HVY RAIN  54  52  93 N9        29.58S
EDENTON*       CLOUDY    57  57  98 NE10G16   29.57F
CURRITUCK*     NOT AVBL
KILL DEVIL HLS CLOUDY    55  50  85 N13G22    29.54F
MANTEO         CLOUDY    54  52  93 NE17G26   29.55F
CAPE HATTERAS  CLOUDY    60  56  86 NE13G22   29.51S
TARBORO*       LGT RAIN  57  55  94 NE6       29.56F
GOLDSBORO      CLOUDY    59  59 100 NE9       29.52S
WASHINGTON     CLOUDY    57  54  87 NE9       29.54S
GREENVILLE     CLOUDY    59  54  82 NE9       29.58F
NEW BERN       CLOUDY    64  55  72 N8        29.53F
WILMINGTON     CLOUDY    69  59  70 SE8       29.50F
$$

VAZ048-051700-
ELSEWHERE

CITY           SKY/WX    TMP DP  RH WIND       PRES   REMARKS
HARRISBURG PA  CLOUDY    55  45  68 E7        29.69F
BALTIMORE      CLOUDY    52  47  83 NE9       29.68S
ANNAPOLIS      CLOUDY    52  47  83 NE6       29.68S
ANDREWS AFB    CLOUDY    50  48  93 N10       29.66F
PHILADELPHIA   CLOUDY    55  44  66 NE12      29.68F
HENDERSON NC   HVY RAIN  52  52 100 N10       29.58S
GREENSBORO     LGT RAIN  49  47  93 N8        29.64S FOG
ROCKY MOUNT    LGT RAIN  58  55  90 N6        29.55S
$$

VAZ100-051700-
MARINE

STATION/POSITION TIME  TEMP    WIND        PRES    WAVE   SWELL
                       AIR SEA DIR/SP/G            HT/PER HT/PER
                 (UTC) (F)     (DEG/KT/KT) (MB)    (FT/S) (FT/S)
BRANDYWINE LGT   1500   49      50/ 17/ 18 1004.6F
CAPE MAY NJ      1500   50 56   40/  8/ 15 1004.3R
LEWES DE         1500   50 54   60/ 17/ 20 1004.3F
15NM E FENWICK I 1550   49 51              1003.0F   7/ 8
OCEAN-CITY-INLET 1500   50 54   50/  8/ 17 1003.1F
WACHAPREAGUE VA  1500   51 58   30/ 15/ 23 1002.5R
THOMAS POINT MD  1600   51 58   40/ 13/ 14 1006.0F
GOOSES REEF MD   1500   52 58   40/ 14/ 16 1005.5F   2/ 3
COVE POINT MD    1500   50      40/ 12/ 17 1004.9R
SOLOMONS ISLAND  1500   51 60   30/  9/ 12   N/A
BISHOPS HEAD MD  1500   51 58   30/ 13/ 18 1003.0F
PINEY POINT MD   1500           70/  8/ 10   N/A
POTOMAC MD       1500   52 60   50/ 14/ 17 1002.8R   1/ 2
CAMBRIDGE MD     1500   51 61   30/ 11/ 14 1003.7S
LEWISETTA VA     1500   52 61   50/  9/ 15 1003.5F
RAPPAHANNOCK LGT 1500           30/ 18/ 21 1003.2F
STINGRAY PT      1500   53 61   50/ 16/ 17 1003.2F   2/ 3
YORK RVR RNG VA  1500   53      40/ 19/ 24 1001.7F
YORKTOWN VA      1500   54 63   50/ 13/ 17 1002.3S
JAMESTOWN VA     1500   54 67   30/  6/ 10   N/A     0
DOMINION TERM VA 1500   54      50/  8/ 13 1002.4F
KIPTOPEKE VA     1500      61   50/ 14/ 21   N/A
CHES BAY BRIDGE  1500   52 60   30/ 21/ 24 1001.8F
CAPE HENRY VA    1500   51      30/ 21/ 24   N/A
CHESAPEAKE LGHT  1500   49      40/ 24/ 25 1002.4R
WILLOUBY STN VA  1500   53      50/ 14/ 17 1003.2F
CAPE HENRY BUOY  1512      55                N/A     6/ 6
CAPE CHARLES BUO 1526      57                N/A     6/ 6   2/15
OFFSHORE WE BUOY 1521      54                N/A     7/ 7   2/13
64NM E OF VA BCH 1550   51 52   20/ 21/ 23 1000.0F   7/ 6   2/11
DUCK PIER NC     1500   51 61   20/ 21/ 26 1000.3R
44100 DUCK FRF   1524      56                N/A     6/ 6
44056 DUCK FRF   1511      59                N/A     6/ 6
OREGON INLET NC  1500   54 61   10/ 16/ 21  999.9F
HATTERAS NC      1500   58 68   20/ 16/ 23  998.9F
DIAMOND SHLS NC  1550   59 71   30/ 21/ 25  998.4F   5/ 6
CAPE LOOKOUT NC  1500   63      30/ 15/ 17  998.9F
$$




USA.gov is the U.S. government's official web portal to all federal, state and local government web resources and services.